Castlegar, British Columbia

11:21 PM PST on December 02, 2016 (GMT -0800)
Castlegar

Weather History for CYCG - July, 2013

Change the Weather History Date:

Wednesday, July 24, 2013

  Actual Average Record
Temperature  
Mean Temperature 78 °F -  
Max Temperature 96 °F 83 °F 96 °F (2013)
Min Temperature 60 °F 54 °F 50 °F (2000)
Cooling Degree Days 14    
Growing Degree Days 28 (Base 50)    
Moisture  
Dew Point 54 °F    
Average Humidity 53    
Maximum Humidity 99    
Minimum Humidity 16    
Precipitation  
Precipitation 0.83 in - - ()
Sea Level Pressure  
Sea Level Pressure 29.88 in    
Wind  
Wind Speed 3 mph ()    
Max Wind Speed 9 mph    
Max Gust Speed -    
Visibility 15.0 miles    
Events      
Averages and records for this station are not official NWS values.
T = Trace of Precipitation, MM = Missing Value Source: Averaged Metar Reports

Daily Weather History Graph

Daily Weather History Graph

Search for Another Location

Airport or City:

Trip Planner

Search our weather history database for the weather conditions in past years. The results will help you decide how hot, cold, wet, or windy it might be!

Date:

Astronomy

Jul. 24, 2013 Rise Set
Actual Time 5:12 AM PDT 8:41 PM PDT
Civil Twilight 4:32 AM PDT 9:20 PM PDT
Nautical Twilight 3:40 AM PDT 10:12 PM PDT
Astronomical Twilight 2:28 AM PDT 11:22 PM PDT
Moon 9:27 PM PDT (7/24) 7:56 AM PDT (7/24)
Length of Visible Light 16h 47m
Length of Day
15h 28m
Waning Gibbous, 94% of the Moon is Illuminated
Jul 24
Waning Gibbous
Jul 29
Last Quarter
Aug 6
New
Aug 14
First Quarter
Aug 20
Full

Hourly Weather History & Observations

Time (PDT) Temp. Heat Index Dew Point Humidity Pressure Visibility Wind Dir Wind Speed Gust Speed Precip Events Conditions
5:00 AM 63 °F - 62 °F 96% 29.65 in - SSE 5.8 mph - -  
6:00 AM 53.6 °F - 50.0 °F 88% 29.97 in 15.0 mi Calm Calm - N/A   Clear
7:00 AM 59.0 °F - 53.6 °F 82% 29.98 in 15.0 mi Calm Calm - N/A   Clear
8:00 AM 64.4 °F - 53.6 °F 68% 29.99 in 15.0 mi Calm Calm - N/A   Clear
9:00 AM 69.8 °F - 51.8 °F 53% 29.99 in 15.0 mi North 2.3 mph - N/A   Clear
10:00 AM 75.2 °F - 53.6 °F 47% 29.96 in 15.0 mi Variable 2.3 mph - N/A   Clear
11:00 AM 64 °F - 64 °F 99% 29.71 in - SE 5.8 mph - -  
11:00 AM 80.6 °F - 51.8 °F 37% 29.94 in 15.0 mi NW 3.5 mph - N/A   Partly Cloudy
12:00 PM 84.2 °F 82.8 °F 53.6 °F 35% 29.93 in 15.0 mi Variable 2.3 mph - N/A   Partly Cloudy
1:00 PM 87.8 °F 86.1 °F 55.4 °F 33% 29.91 in 15.0 mi NNW 4.6 mph - N/A   Partly Cloudy
2:00 PM 93.2 °F - 50.0 °F 23% 29.89 in 15.0 mi SSW 4.6 mph - N/A   Partly Cloudy
3:00 PM 95.0 °F - 46.4 °F 19% 29.87 in 15.0 mi South 4.6 mph - N/A   Partly Cloudy
4:00 PM 96.8 °F - 42.8 °F 16% 29.86 in 15.0 mi SW 4.6 mph - N/A   Partly Cloudy
5:00 PM 62 °F - 62 °F 99% 29.81 in - South 4.6 mph - -  
5:00 PM 96.8 °F - 44.6 °F 17% 29.85 in 15.0 mi SSW 9.2 mph - N/A   Partly Cloudy
6:00 PM 96.8 °F - 46.4 °F 18% 29.84 in 15.0 mi SSW 4.6 mph - N/A   Partly Cloudy
7:00 PM 95.0 °F - 46.4 °F 19% 29.84 in 15.0 mi SW 3.5 mph - N/A   Partly Cloudy
8:00 PM 82.4 °F 83.9 °F 64.4 °F 54% 29.87 in 15.0 mi Calm Calm - N/A   Partly Cloudy
9:00 PM 71.6 °F - 59.0 °F 64% 29.89 in 15.0 mi Calm Calm - N/A   Partly Cloudy
11:00 PM 60 °F - 60 °F 99% 29.91 in - NW 4.6 mph - -